133 visiteurs
Prévisions de votre ville :
Vigilance : 4 départements Mise à jour le 17/10/2018 à 18:01 - Voir la carte

Paris Roissy CDG (95380) le 18/10/2018 à 03:30 Choisir station

13°C 88 % NNE Vit. moyenne 19 kmh/h

Relevés météo quotidiens pour la station de :

UTC
S: Synop
M: Metar
Loc T°C
(°C)
Td
(°C)
HR
(%)
Vis
(km)
Néb
(octa)
Vent
(km/h)
Pression
(mb)
Précipitations
(mm)
Temps
              MOY
10 min
DIR RAF 1h MESURE VAR SUR 3h    
S 00 h 02h 16.8 12.5 76 20 8/8 15 33 1010.0 -0.5/3h 2.0/6h - 0.2/3h
S 01 h 03h 17.0 12.3 74 20 8/8 7 13 1010.3 +0.4/3h 0.0/1h
S 02 h 04h 16.8 12.9 78 20 8/8 6 15 1010.0 +0.4/3h 0.0/1h
S 03 h 05h 16.1 13.8 86 20 8/8 7 13 1009.6 -0.4/3h 0.0/3h
S 04 h 06h 16.1 13.8 86 20 8/8 19 26 1009.8 -0.5/3h 0.0/1h
S 05 h 07h 15.5 13.3 87 20 /8 9 13 1010.0 -0.1/3h 0.0/1h -
S 06 h 08h 15.7 13.0 84 20 /8 19 30 1010.4 +0.7/3h 2.0/12h - 2.4/3h
S 07 h 09h 16.3 12.8 80 20 /8 11 17 1010.8 +1.0/3h 0.0/1h
S 08 h 10h 18.1 13.4 74 20 /8 9 15 1011.1 +1.3/3h 0.0/1h
S 09 h 11h 20.1 14.0 68 20 /8 9 17 1011.0 +0.9/3h 0.0/3h
S 10 h 12h 23.0 13.7 56 20 /8 13 19 1010.8 +0.4/3h 0.0/1h
S 11 h 13h 25.2 12.8 46 20 /8 20 35 1010.2 -0.4/3h 0.0/1h
S 12 h 14h 26.6 11.9 40 20 /8 9 20 1009.5 -1.0/3h 0.0/6h - 0.0/3h
S 13 h 15h 26.3 11.6 40 20 /8 7 19 1009.3 -1.2/3h 0.0/1h
S 14 h 16h 27.1 11.9 39 20 /8 9 17 1009.2 -0.9/3h 0.0/1h
S 15 h 17h 25.7 11.8 42 20 6/8 7 13 1009.5 -0.1/3h 0.0/3h
S 16 h 18h 26.0 11.0 39 20 /8 24 39 1009.8 +0.4/3h 0.0/1h
S 17 h 19h 21.5 10.6 50 17 /8 7 33 1010.8 +1.2/3h 0.0/1h
S 18 h 20h 22.1 10.3 47 18 8/8 15 30 1012.4 +2.6/3h 0.0/1h
S 19 h 21h 18.6 12.3 67 20 8/8 4 28 1013.1 +2.8/3h 0.2/1h
S 20 h 22h 16.9 14.9 88 19 8/8 4 30 1015.2 +4.0/3h 0.2/1h
S 21 h 23h 16.2 15.6 96 13 8/8 4 7 1015.5 +2.7/3h 3.0/3h
S 22 h 00h 16.4 15.9 97 19 8/8 6 7 1015.8 +2.5/3h 0.0/1h
S 23 h 01h 16.1 15.1 94 20 8/8 6 17 1015.8 +0.6/3h 0.0/1h
evolution des temperatures
cumul des precipitations
vent moyen et rafales
pression atmospherique

Un tiret (-) signifie que les données ne sont pas disponibles.

Passez la souris sur les pictos temps pour avoir plus de précisions. Passez les flèches sur l'icône de la direction du vent pour voir la direction précise en degrés.

Les données de l'heure en cours sont disponibles à partir de H+15 minutes.


S signifie station Synop, plus complète qu'une station Metar (M). Il y a +1h de différence entre l'heure UTC et l'heure légale en hiver et +2h en été.

Td est la mesure du point de rosée.

HR est l'humidité relative/p>

Vis est la visibilité

Néb est la nébulosité du ciel (couverture nuageuse) exprimée en octas (de 0/8 à 8/8).

Vent moy 10 min donne le vent moyen sur les 10 minutes qui précèdent le relevé.

Vent raf 1h donne la rafale maximale mesurée dans l'heure qui précède le relevé.


Les données les plus anciennes remontent à avril 2014.

Les données présentées sur cette page proviennent des stations météo officielles. Les relevés sont effectués aux normes en vigueur (anémomètre à 10m de haut, thermomètre sous abri normalisé à 2m du sol...)

Météo 60 décline toute responsabilité en cas d'absence de données, d'erreurs, de mauvaise utilisation ou interprétation et n'est pas habilité à fournir des certificats intempéries.